Location: Godiavel Galaoual
(15.2485°N, 12.6604°W)
Time: 02:16:17
(UTC+00:00)

Transit 4A - Pass Details

Date: 17 June 2021
Orbit: 872 x 972 km, 66.8° (Epoch: 29 July)

Event Time Altitude Azimuth Distance (km) Brightness Sun altitude
Rises 20:06:29 0° 354° (N) 3,458 11.4 -10.3°
Reaches altitude 10° 20:09:12 10° 3° (N) 2,526 10.5 -10.9°
Maximum altitude 20:14:24 33° 67° (ENE) 1,445 8.6 -12.0°
Enters shadow 20:18:08 17° 120° (ESE) 2,091 9.1 -12.8°
Drops below altitude 10° 20:19:40 10° 129° (SE) 2,569 - -13.1°
Sets 20:22:26 0° 139° (SE) 3,526 - -13.7°
